When you browse on this site, cookies collect data to enhance your experience and personalize the content and advertising you see.
Visit our Privacy Policy to learn more. By continuing to use the site, you agree to this use of cookies and data.
  • In Germany
  • List of Countries
  • For 7 days
  • Water Temperature
  • Satellite Maps
  • Weather Map
  • Weather Widgets
  • user-avatar
    Login

    Hourly Weather Elbasan

    Today, 26 March, Tuesday

    Time Temperature Precipitation Wind Pressure Humidity
    00:00 +12°C° 0 mm 1 mps 730 mmHg 68%
    01:00 +11°C° 0 mm 1 mps 730 mmHg 67%
    02:00 +11°C° 0 mm 1 mps 730 mmHg 67%
    03:00 +11°C° 0 mm 1 mps 730 mmHg 67%
    04:00 +11°C° 0 mm 1 mps 730 mmHg 67%
    05:00 +12°C° 0 mm 1 mps 730 mmHg 66%
    06:00 +12°C° 0 mm 1 mps 731 mmHg 64%
    07:00 +13°C° 0 mm 1 mps 731 mmHg 63%
    08:00 +15°C° 0 mm 1 mps 731 mmHg 57%
    09:00 +16°C° 0 mm 1 mps 731 mmHg 50%
    10:00 +19°C° 0 mm 1 mps 732 mmHg 44%
    11:00 +20°C° 0.1 mm 1 mps 732 mmHg 43%
    12:00 +19°C° 0.1 mm 2 mps 732 mmHg 42%
    13:00 +19°C° 0.1 mm 2 mps 732 mmHg 41%
    14:00 +19°C° 0.4 mm 2 mps 732 mmHg 43%
    15:00 +19°C° 0.4 mm 2 mps 732 mmHg 44%
    16:00 +18°C° 0.4 mm 2 mps 732 mmHg 46%
    17:00 +17°C° 0.1 mm 2 mps 732 mmHg 51%
    18:00 +15°C° 0.1 mm 2 mps 733 mmHg 55%
    19:00 +14°C° 0.1 mm 2 mps 733 mmHg 60%
    20:00 +13°C° 0 mm 2 mps 734 mmHg 60%
    21:00 +12°C° 0 mm 2 mps 735 mmHg 60%
    22:00 +11°C° 0 mm 3 mps 735 mmHg 60%
    23:00 +10°C° 0 mm 3 mps 735 mmHg 61%

    Tomorrow, 27 March, Wednesday

    Time Temperature Precipitation Wind Pressure Humidity
    00:00 +10°C° 0 mm 3 mps 736 mmHg 61%
    01:00 +9°C° 0 mm 3 mps 736 mmHg 62%
    02:00 +9°C° 0 mm 3 mps 736 mmHg 62%
    03:00 +8°C° 0 mm 3 mps 736 mmHg 62%
    04:00 +8°C° 0 mm 3 mps 736 mmHg 61%
    05:00 +8°C° 0 mm 3 mps 736 mmHg 59%
    06:00 +9°C° 0 mm 3 mps 737 mmHg 57%
    07:00 +9°C° 0 mm 3 mps 737 mmHg 55%
    08:00 +11°C° 0 mm 3 mps 737 mmHg 49%
    09:00 +13°C° 0 mm 3 mps 737 mmHg 43%
    10:00 +15°C° 0 mm 4 mps 738 mmHg 38%
    11:00 +16°C° 0 mm 3 mps 737 mmHg 37%
    12:00 +17°C° 0 mm 3 mps 737 mmHg 36%
    13:00 +18°C° 0 mm 3 mps 737 mmHg 35%
    14:00 +18°C° 0 mm 3 mps 737 mmHg 36%
    15:00 +17°C° 0 mm 3 mps 737 mmHg 37%
    16:00 +17°C° 0 mm 3 mps 737 mmHg 39%
    17:00 +15°C° 0 mm 2 mps 737 mmHg 46%
    18:00 +14°C° 0 mm 2 mps 737 mmHg 53%
    19:00 +12°C° 0 mm 2 mps 738 mmHg 60%
    20:00 +12°C° 0 mm 2 mps 738 mmHg 59%
    21:00 +12°C° 0 mm 2 mps 738 mmHg 58%
    22:00 +10°C° 0 mm 2 mps 739 mmHg 56%
    23:00 +10°C° 0 mm 3 mps 739 mmHg 54%

    Day after tomorrow, 28 March, Thursday

    Time Temperature Precipitation Wind Pressure Humidity
    00:00 +9°C° 0 mm 3 mps 739 mmHg 52%
    01:00 +9°C° 0 mm 3 mps 739 mmHg 49%
    02:00 +9°C° 0 mm 3 mps 739 mmHg 50%
    03:00 +7°C° 0 mm 4 mps 739 mmHg 51%
    04:00 +7°C° 0 mm 4 mps 739 mmHg 51%
    05:00 +7°C° 0 mm 4 mps 739 mmHg 51%
    06:00 +7°C° 0 mm 4 mps 739 mmHg 50%
    07:00 +7°C° 0 mm 4 mps 739 mmHg 50%
    08:00 +10°C° 0 mm 4 mps 739 mmHg 46%
    09:00 +12°C° 0 mm 4 mps 740 mmHg 42%
    10:00 +13°C° 0 mm 4 mps 740 mmHg 38%
    11:00 +14°C° 0 mm 4 mps 740 mmHg 37%
    12:00 +15°C° 0 mm 4 mps 739 mmHg 36%
    13:00 +17°C° 0 mm 4 mps 739 mmHg 35%
    14:00 +17°C° 0 mm 4 mps 739 mmHg 36%
    15:00 +15°C° 0 mm 4 mps 739 mmHg 37%
    16:00 +15°C° 0 mm 4 mps 738 mmHg 38%
    17:00 +14°C° 0 mm 4 mps 739 mmHg 42%
    18:00 +12°C° 0 mm 3 mps 739 mmHg 46%
    19:00 +10°C° 0 mm 3 mps 739 mmHg 49%
    20:00 +10°C° 0 mm 3 mps 740 mmHg 51%
    21:00 +9°C° 0 mm 3 mps 740 mmHg 52%
    22:00 +9°C° 0 mm 3 mps 740 mmHg 54%
    23:00 +8°C° 0 mm 3 mps 740 mmHg 55%

    29 March, Friday

    Time Temperature Precipitation Wind Pressure Humidity
    00:00 +8°C° 0 mm 3 mps 741 mmHg 56%
    01:00 +7°C° 0 mm 3 mps 741 mmHg 58%
    02:00 +7°C° 0 mm 3 mps 741 mmHg 59%
    03:00 +5°C° 0 mm 3 mps 741 mmHg 60%
    04:00 +5°C° 0 mm 3 mps 741 mmHg 61%
    05:00 +7°C° 0 mm 3 mps 741 mmHg 59%
    06:00 +7°C° 0 mm 3 mps 741 mmHg 56%
    07:00 +8°C° 0 mm 3 mps 741 mmHg 54%
    08:00 +10°C° 0 mm 4 mps 742 mmHg 47%
    09:00 +12°C° 0 mm 4 mps 742 mmHg 40%
    10:00 +13°C° 0 mm 4 mps 742 mmHg 33%
    11:00 +14°C° 0 mm 4 mps 741 mmHg 31%
    12:00 +15°C° 0 mm 4 mps 741 mmHg 29%
    13:00 +17°C° 0 mm 4 mps 741 mmHg 27%
    14:00 +17°C° 0 mm 4 mps 740 mmHg 28%
    15:00 +17°C° 0 mm 3 mps 740 mmHg 29%
    16:00 +17°C° 0 mm 3 mps 740 mmHg 30%
    17:00 +14°C° 0 mm 3 mps 740 mmHg 36%
    18:00 +13°C° 0 mm 2 mps 740 mmHg 42%
    19:00 +12°C° 0 mm 2 mps 740 mmHg 48%
    20:00 +10°C° 0 mm 2 mps 741 mmHg 49%
    21:00 +9°C° 0 mm 2 mps 741 mmHg 50%
    22:00 +9°C° 0 mm 2 mps 741 mmHg 51%
    23:00 +8°C° 0 mm 2 mps 741 mmHg 53%

    30 March, Saturday

    Time Temperature Precipitation Wind Pressure Humidity
    00:00 +8°C° 0 mm 2 mps 741 mmHg 55%
    01:00 +7°C° 0 mm 2 mps 741 mmHg 57%
    02:00 +7°C° 0 mm 2 mps 741 mmHg 59%
    03:00 +7°C° 0 mm 2 mps 741 mmHg 61%
    04:00 +6°C° 0 mm 2 mps 741 mmHg 62%
    05:00 +7°C° 0 mm 2 mps 741 mmHg 62%
    06:00 +8°C° 0 mm 2 mps 741 mmHg 61%
    07:00 +9°C° 0 mm 2 mps 741 mmHg 60%
    08:00 +12°C° 0 mm 2 mps 741 mmHg 53%
    09:00 +13°C° 0 mm 2 mps 741 mmHg 46%
    10:00 +15°C° 0 mm 2 mps 741 mmHg 38%
    11:00 +16°C° 0 mm 2 mps 740 mmHg 36%
    12:00 +18°C° 0 mm 2 mps 740 mmHg 33%
    13:00 +19°C° 0 mm 2 mps 739 mmHg 30%
    14:00 +18°C° 0 mm 3 mps 738 mmHg 33%
    15:00 +18°C° 0 mm 3 mps 738 mmHg 35%
    16:00 +18°C° 0 mm 3 mps 737 mmHg 37%
    17:00 +16°C° 0 mm 2 mps 737 mmHg 46%
    18:00 +14°C° 0 mm 2 mps 737 mmHg 54%
    19:00 +12°C° 0 mm 1 mps 737 mmHg 62%
    20:00 +11°C° 0 mm 1 mps 737 mmHg 62%
    21:00 +11°C° 0 mm 1 mps 737 mmHg 62%
    22:00 +11°C° 0 mm 1 mps 737 mmHg 63%
    23:00 +10°C° 0 mm 1 mps 737 mmHg 62%

    31 March, Sunday

    Time Temperature Precipitation Wind Pressure Humidity
    00:00 +9°C° 0 mm 2 mps 737 mmHg 61%
    01:00 +9°C° 0 mm 2 mps 736 mmHg 60%
    02:00 +8°C° 0 mm 2 mps 736 mmHg 60%
    03:00 +8°C° 0 mm 2 mps 736 mmHg 60%
    04:00 +8°C° 0 mm 2 mps 735 mmHg 61%
    05:00 +9°C° 0 mm 2 mps 735 mmHg 60%
    06:00 +9°C° 0 mm 2 mps 735 mmHg 59%
    07:00 +10°C° 0 mm 2 mps 735 mmHg 58%
    08:00 +13°C° 0 mm 1 mps 735 mmHg 51%
    09:00 +15°C° 0 mm 1 mps 735 mmHg 44%
    10:00 +18°C° 0 mm 1 mps 735 mmHg 37%
    11:00 +19°C° 0 mm 1 mps 734 mmHg 36%
    12:00 +19°C° 0 mm 2 mps 734 mmHg 35%
    13:00 +19°C° 0 mm 3 mps 733 mmHg 34%
    14:00 +18°C° 0 mm 3 mps 733 mmHg 38%
    15:00 +18°C° 0 mm 3 mps 732 mmHg 43%
    16:00 +17°C° 0 mm 3 mps 732 mmHg 47%
    17:00 +14°C° 0 mm 3 mps 732 mmHg 56%
    18:00 +14°C° 0 mm 2 mps 733 mmHg 65%
    19:00 +12°C° 0 mm 1 mps 733 mmHg 74%
    20:00 +12°C° 0 mm 1 mps 733 mmHg 75%
    21:00 +11°C° 0 mm 1 mps 733 mmHg 77%
    22:00 +10°C° 0 mm 0 mps 734 mmHg 79%
    23:00 +11°C° 0 mm 1 mps 734 mmHg 77%
    Show more